Lapse_Rate
3.3 3.1 3.1 2.6 2.4 2.3 1.3 0.4 0.7 0.0 -0.1 -0.3 -0.8 -1.2 -1.0 -1.3 -2.0 1.7 3.4 3.9 4.9 3.4 2.1 3.9 5.0 4.1 3.9 4.3 4.8 2.4 6.5 6.5 6.5 6.5 6.5 4.7 6.4 5.1 3.7 4.9 4.4 4.0 5.0 5.0 4.2
3.3 3.4 2.8 2.3 2.3 2.0 1.2 0.7 0.2 0.3 -0.1 -0.4 -0.8 -1.3 -1.0 -1.3 -1.5 0.3 2.6 4.3 4.2 3.4 5.2 5.0 4.8 3.8 3.5 4.8 4.1 5.9 6.5 6.5 6.5 6.5 6.5 5.8 5.7 5.7 5.8 5.6 5.5 4.3 4.5 3.6 3.6
2.5 2.3 2.2 2.1 1.8 1.4 1.0 0.5 0.1 0.1 -0.2 -0.4 -0.6 -0.9 -1.0 -1.3 3.1 4.5 4.7 5.8 4.3 3.0 4.5 5.5 5.2 5.5 5.8 5.3 5.8 6.0 6.5 6.5 6.1 5.3 5.3 6.0 5.4 4.8 5.4 6.5 4.4 3.5 3.4 4.1 4.0
2.2 2.0 2.2 1.8 1.3 0.9 0.7 0.3 0.1 0.2 0.1 -0.2 -0.6 -0.4 -0.9 0.6 6.5 5.7 4.6 3.6 3.0 3.7 5.3 6.5 5.7 5.6 6.4 6.5 5.8 6.5 5.9 5.7 5.7 5.7 5.6 6.5 4.7 5.8 5.4 5.1 4.2 1.2 0.4 3.1 4.3
2.1 2.0 1.8 1.8 1.1 0.6 0.3 0.1 -0.1 0.2 0.3 0.0 -0.1 -0.0 0.4 2.4 3.5 4.5 5.7 5.2 4.1 5.3 6.1 6.8 6.2 6.1 6.5 6.3 5.8 6.5 6.5 5.7 5.3 4.5 4.8 4.7 5.7 6.1 4.7 3.1 1.0 1.1 3.9 3.7 4.8
2.2 1.9 1.5 1.0 0.9 0.7 0.1 -0.1 -0.2 0.3 0.3 0.3 0.2 0.1 2.4 5.8 3.8 4.1 3.5 3.3 5.2 5.6 5.6 6.6 6.5 6.4 5.6 6.3 6.5 6.1 5.8 5.5 4.6 5.8 5.1 6.3 6.2 5.5 4.2 0.6 1.0 2.3 3.9 4.0 4.0
1.8 1.7 1.5 0.9 0.8 0.5 0.2 -0.0 -0.1 0.1 0.2 1.0 0.4 1.4 1.7 2.6 3.1 3.3 1.9 3.2 4.0 4.7 5.5 6.0 6.5 6.7 5.8 6.5 6.2 6.2 6.5 6.5 6.3 5.9 6.3 5.6 6.5 6.5 3.4 2.2 1.9 3.6 4.1 5.1 4.7
2.2 2.0 1.6 1.2 0.8 0.6 0.3 -0.0 -0.1 0.4 0.2 0.7 1.3 2.2 2.8 3.0 2.8 1.6 2.9 2.6 2.8 3.0 4.2 5.1 5.0 5.4 6.2 5.5 5.6 6.5 6.5 6.5 6.5 6.5 6.0 6.0 6.5 6.5 2.9 3.1 3.7 4.0 4.5 4.4 4.8
2.7 2.3 1.8 1.7 1.5 1.4 0.5 0.3 0.6 0.5 0.6 0.8 2.1 3.3 3.9 4.7 3.7 4.0 3.3 4.7 5.8 5.3 4.5 6.4 5.5 5.1 6.0 6.5 6.5 6.5 6.5 6.5 6.5 6.4 6.5 6.5 6.5 6.5 4.0 4.2 5.0 4.8 5.0 5.3 5.4
3.2 2.9 2.7 2.4 2.1 1.8 1.1 0.8 0.5 0.7 1.2 2.6 5.7 5.5 3.7 5.5 6.1 5.4 5.7 5.2 6.3 5.3 6.0 5.9 4.3 6.5 6.5 6.5 6.5 6.5 6.5 6.5 6.5 6.5 6.5 6.5 6.5 6.5 3.8 4.8 5.3 4.3 4.6 5.3 5.2
4.4 4.2 3.8 3.0 3.1 2.7 0.5 -0.0 3.1 4.1 5.6 4.3 5.2 4.5 4.4 5.6 6.3 5.1 5.7 5.1 6.0 6.1 6.5 5.8 6.5 6.5 6.5 6.5 6.5 6.5 6.5 6.5 6.5 6.5 6.5 6.5 6.5 6.5 6.0 5.6 5.3 4.6 5.1 5.0 4.0
5.8 5.6 5.3 5.0 4.1 3.2 0.8 4.8 6.5 6.4 6.3 5.3 4.9 6.1 5.3 4.9 6.8 4.6 5.8 6.6 6.3 6.5 6.5 6.5 6.5 6.5 6.5 6.5 6.5 6.5 6.5 6.5 6.5 6.5 6.5 6.5 6.5 6.5 6.5 6.2 3.9 4.0 4.6 4.5 2.7
6.3 6.2 6.1 5.4 4.6 3.0 3.4 6.2 5.6 4.9 5.6 6.1 5.5 5.8 5.8 5.4 6.5 5.9 6.9 6.1 6.5 6.5 6.5 6.5 6.5 6.5 6.5 6.5 6.5 6.5 6.5 6.5 6.5 6.5 6.5 6.5 6.5 6.5 6.5 5.8 4.5 3.1 3.1 4.9 2.7
6.5 6.2 6.1 5.3 4.3 2.9 5.0 5.2 4.4 4.3 6.5 6.5 6.2 5.6 6.3 7.0 6.2 5.1 5.9 6.2 6.3 6.5 6.5 6.5 6.4 6.5 6.5 6.5 6.5 6.5 6.5 6.5 6.5 6.5 6.5 6.5 6.5 6.5 6.5 6.5 6.5 5.0 2.9 3.1 3.8
6.5 6.3 6.3 5.7 3.8 4.6 5.3 4.2 3.9 4.7 6.5 6.5 6.3 5.8 6.1 5.9 6.4 6.6 5.9 5.4 6.5 6.5 6.5 6.5 6.5 6.5 6.5 6.5 6.5 6.5 6.5 6.5 6.5 6.5 6.5 6.5 6.5 6.5 6.5 6.5 6.5 6.5 3.3 1.8 2.1
6.7 6.7 6.1 4.7 3.0 4.4 4.6 3.5 4.1 6.5 6.5 6.5 6.4 6.5 6.5 6.2 6.1 6.1 6.0 5.8 5.1 6.5 6.5 6.5 5.8 6.5 6.5 6.5 6.5 6.5 6.5 6.5 6.5 6.5 6.5 6.5 6.5 6.5 6.5 6.5 6.5 6.4 4.3 2.3 1.3
6.9 6.9 6.1 6.2 5.5 5.3 4.9 5.0 6.5 6.5 6.5 6.5 6.5 6.5 6.5 6.5 6.5 6.5 6.5 6.5 6.5 6.5 6.5 6.5 6.5 6.5 6.3 6.5 6.5 6.5 6.5 6.5 6.5 6.5 6.5 6.5 6.5 6.5 6.5 6.5 6.5 6.5 3.9 1.2 3.9
6.5 6.7 5.7 5.7 5.7 6.1 4.9 6.4 6.5 6.5 6.5 6.5 6.5 6.5 6.5 6.5 6.5 6.5 6.5 6.5 6.5 6.5 6.5 6.5 6.5 6.5 6.5 6.5 6.5 6.5 6.5 6.5 6.5 6.5 6.5 6.5 6.5 6.5 6.5 6.4 6.1 6.1 5.3 4.3 4.6
6.7 4.2 4.8 3.8 5.9 5.6 5.8 6.5 6.5 6.5 6.5 6.5 6.5 6.5 6.5 6.5 6.5 6.5 6.5 6.5 6.5 6.5 6.5 6.5 6.5 6.5 6.5 6.5 6.5 6.5 6.5 6.5 6.5 6.5 6.5 6.5 6.5 6.5 6.5 6.5 6.5 6.4 6.4 5.9 6.1
5.1 5.6 5.3 5.6 6.3 6.3 6.4 6.5 6.5 6.5 6.5 6.5 6.5 6.5 6.5 6.5 6.5 6.5 6.5 6.5 6.5 6.5 6.5 6.5 6.5 6.5 6.5 6.5 6.5 6.5 6.5 6.5 6.5 6.5 6.5 6.5 6.5 6.5 6.5 6.5 6.5 6.5 6.2 6.2 6.6
6.1 6.4 5.7 5.1 5.4 6.4 6.5 6.5 6.5 6.7 6.6 6.5 6.5 6.5 6.5 6.5 6.5 6.5 6.5 6.5 6.5 6.5 6.5 6.5 6.5 6.5 6.5 6.5 6.5 6.5 6.5 6.5 6.5 6.5 6.5 6.5 6.5 6.5 6.5 6.5 6.5 6.5 6.4 6.2 6.3
6.1 6.5 4.6 5.3 6.4 6.4 6.5 6.5 6.8 6.5 6.7 6.5 6.5 6.5 6.5 6.5 6.5 6.5 6.5 6.5 6.4 6.5 6.5 6.5 6.5 6.5 6.5 6.5 6.5 6.5 6.5 6.5 6.5 6.5 6.5 6.5 6.5 6.5 6.5 6.5 6.7 6.8 7.1 6.7 6.5
6.5 6.3 5.4 5.4 6.5 6.5 6.5 6.5 6.6 6.5 6.5 6.5 6.5 6.5 6.5 6.5 6.5 6.5 6.5 6.1 5.9 6.5 6.5 6.5 6.5 6.5 6.5 6.5 6.5 6.5 6.5 6.5 6.5 6.5 6.5 6.5 6.5 6.5 6.5 6.5 6.8 6.7 6.8 6.1 5.5
6.4 6.5 6.0 6.0 6.0 6.5 6.5 6.5 6.5 6.2 6.6 6.7 6.5 6.5 6.5 6.5 6.5 6.5 6.5 6.5 6.0 6.4 6.4 6.0 6.5 6.5 6.5 6.5 6.5 6.5 6.5 6.5 6.5 6.5 6.5 6.5 6.5 6.5 6.5 6.5 6.6 6.7 6.9 6.2 5.4
6.1 6.3 6.2 6.5 6.5 6.5 6.5 6.5 6.5 6.5 6.6 6.6 6.5 6.5 6.5 6.5 6.5 6.5 6.5 6.5 6.3 6.2 6.4 6.5 6.5 6.5 6.5 6.5 6.5 6.5 6.5 6.5 6.5 6.5 6.5 6.5 6.5 6.5 6.5 6.5 6.5 6.7 7.0 6.9 6.2
5.2 6.3 6.3 6.8 6.3 6.5 6.5 6.5 6.5 6.5 6.5 6.5 6.5 6.5 6.5 6.5 6.5 6.5 6.5 6.5 6.5 6.5 6.5 6.5 6.5 6.5 6.5 6.5 6.5 6.5 6.5 6.5 6.5 6.5 6.5 6.5 6.5 6.5 6.3 5.4 6.4 6.4 6.8 6.9 6.9
4.4 5.5 6.0 5.9 6.2 6.5 6.5 6.5 6.5 6.5 6.5 6.7 6.5 6.5 6.5 6.5 6.6 6.1 6.7 6.5 6.3 6.5 6.5 6.5 6.5 6.5 6.5 6.5 6.5 6.5 6.5 6.5 6.5 6.5 6.5 6.5 6.5 6.5 6.5 6.5 6.1 5.5 5.2 5.7 6.4
Wind_Speed
9 9 10 10 11 15 16 16 17 19 20 21 23 25 29 32 32 5 6 7 3 5 3 7 4 6 2 2 1 4 3 2 4 3 5 8 4 4 1 6 1 2 6 6 18
8 8 8 10 10 12 14 16 16 16 18 20 22 23 29 30 6 7 9 5 4 8 6 5 8 8 5 3 2 3 3 5 4 4 6 7 5 5 3 2 1 2 5 18 18
7 8 9 10 12 13 14 15 17 17 17 19 22 23 28 21 6 5 1 2 4 5 3 3 3 2 2 3 1 3 5 3 5 5 3 5 8 4 8 3 6 7 14 18 17
6 9 11 12 13 14 16 17 16 17 18 19 20 24 30 2 7 2 1 4 5 4 5 3 4 5 3 3 1 5 6 5 5 3 5 5 6 7 4 7 6 12 22 20 19
7 9 10 12 12 14 16 17 16 17 17 17 18 20 8 4 10 10 14 11 5 2 4 2 2 2 3 4 5 6 5 4 5 9 6 6 9 6 9 8 6 16 19 21 17
8 8 10 10 13 16 16 17 17 18 16 16 15 17 2 8 6 7 7 6 3 3 4 2 3 3 5 4 3 4 6 9 8 5 6 6 6 5 8 5 10 17 20 18 19
7 9 10 10 14 16 18 18 19 18 15 16 11 4 3 18 6 17 10 5 4 6 5 4 4 3 3 6 3 3 7 8 12 3 5 4 9 8 9 8 12 14 16 15 16
6 10 12 14 15 18 21 21 21 22 14 12 5 1 8 7 12 11 4 8 10 9 8 8 6 6 4 4 7 5 2 5 1 4 4 8 9 15 9 12 12 14 15 17 18
7 10 13 16 17 21 22 26 27 20 8 4 2 2 11 10 5 8 7 5 4 4 6 5 6 7 2 2 4 3 5 6 12 7 6 5 6 10 2 11 11 13 14 15 14
7 10 12 15 17 21 26 28 15 2 4 6 2 2 8 4 4 7 3 3 2 6 5 3 2 5 2 4 10 5 5 5 7 3 5 11 12 10 12 10 15 14 13 14 16
7 9 13 15 18 20 14 5 5 3 1 6 4 5 7 5 7 6 3 8 4 3 5 3 3 8 14 8 7 5 8 9 11 17 6 14 17 15 16 4 8 9 9 13 17
7 9 12 15 18 20 2 3 2 4 8 10 16 19 22 9 8 19 3 3 1 5 2 4 10 8 6 6 11 13 15 14 10 15 8 11 17 11 9 7 8 13 13 15 7
9 10 12 15 21 4 4 2 11 3 5 6 10 7 7 12 15 22 4 4 6 7 7 10 7 3 6 10 9 12 13 11 15 13 18 5 24 6 7 5 5 7 12 12 17
11 9 10 17 4 3 1 10 15 2 4 7 5 7 5 3 6 9 13 11 7 16 7 9 8 15 15 13 8 20 10 14 17 10 10 6 19 4 5 9 7 8 8 10 13
11 9 7 3 4 1 3 16 11 3 4 2 4 3 3 8 2 2 4 5 8 5 7 7 3 3 8 14 12 21 6 6 7 8 4 12 5 1 4 6 8 8 8 10 15
9 9 4 2 2 4 15 8 3 5 8 6 2 3 1 4 4 3 3 4 6 6 5 9 4 6 8 9 10 3 4 6 5 4 8 12 8 21 10 8 6 8 10 8 13
9 8 3 1 2 7 10 2 4 4 4 2 3 4 5 4 6 1 3 3 4 0 2 5 5 4 8 11 7 6 3 4 5 4 14 7 7 15 3 5 4 9 9 9 11
9 7 3 6 2 10 4 2 4 5 7 12 5 7 3 8 2 7 4 2 1 3 2 2 5 0 4 3 5 6 9 11 8 8 11 5 7 6 3 5 6 7 6 9 10
3 1 2 3 8 3 2 4 7 6 4 5 8 3 3 2 5 6 4 1 4 9 7 5 5 3 6 4 3 3 5 16 15 14 5 6 7 6 9 10 9 8 9 9 9
3 1 3 5 13 3 3 12 5 3 7 4 2 2 3 1 2 5 3 0 5 4 2 2 5 2 4 1 4 2 2 3 1 8 13 5 3 2 14 13 8 8 8 8 6
2 1 2 9 4 2 4 7 8 14 8 3 4 5 3 2 0 0 4 2 2 6 4 6 1 5 3 3 1 3 1 2 5 3 7 12 4 6 12 16 15 8 8 6 5
2 4 2 4 3 2 5 5 7 16 10 7 6 11 7 3 3 4 7 5 2 0 2 3 1 4 7 6 2 3 3 3 2 3 3 1 3 7 11 9 12 14 15 13 8
2 2 2 1 5 7 10 11 8 17 12 5 7 7 5 5 4 5 7 7 6 4 8 1 1 3 7 3 3 5 3 3 4 2 2 3 2 3 11 9 7 9 7 8 7
1 2 2 2 1 4 6 8 7 4 11 12 8 11 8 5 5 6 6 4 4 3 8 5 8 8 7 4 3 2 4 8 6 2 3 6 9 6 9 13 13 17 14 14 13
2 2 3 3 3 8 10 7 16 15 13 14 7 18 16 10 11 11 11 9 7 5 4 3 6 7 13 5 4 5 9 8 11 9 7 10 13 11 6 13 15 18 17 15 15
4 3 2 4 3 3 6 4 13 17 8 8 9 15 8 10 12 10 5 5 5 1 4 3 4 3 4 8 5 10 10 10 10 10 11 14 17 2 4 8 11 14 16 18 15
1 1 2 2 1 2 4 7 8 9 8 9 8 11 12 17 11 10 15 16 7 6 5 3 4 4 4 2 0 3 12 12 5 6 6 6 6 3 10 8 5 5 3 6 14
Wind_Direction
316 319 323 326 336 339 340 341 346 347 341 335 337 337 331 328 322 314 275 215 209 349 317 300 334 348 23 18 41 126 66 253 261 228 254 310 47 359 17 109 109 245 162 161 142
323 322 333 333 341 341 337 337 346 340 335 334 334 336 328 332 301 279 261 242 270 346 344 5 329 353 345 338 1 108 145 232 211 247 270 286 278 156 131 104 197 38 80 132 143
11 1 352 345 342 336 332 336 338 335 337 335 334 333 325 337 311 262 190 201 308 359 305 312 295 327 305 355 299 162 201 214 270 248 259 279 307 192 134 222 216 190 153 155 160
5 353 344 342 338 333 332 334 335 336 337 336 337 328 320 27 297 270 66 340 329 344 319 319 351 332 286 271 273 327 232 222 257 298 317 292 299 291 194 224 196 172 168 159 173
357 350 346 339 336 333 332 331 331 331 332 333 338 329 342 9 246 291 330 338 322 338 258 268 300 266 254 290 298 203 268 236 254 282 250 279 252 253 282 265 102 143 162 174 180
352 348 342 337 333 330 327 324 323 320 324 324 332 331 343 274 239 290 336 342 245 295 256 295 272 264 265 260 215 312 306 295 285 231 249 236 262 154 268 127 134 156 176 181 183
343 338 335 334 330 326 320 317 313 306 313 310 319 325 265 250 276 308 303 266 222 209 257 226 242 232 328 314 286 281 304 314 279 249 241 167 289 219 244 169 168 182 179 186 188
330 329 329 330 328 322 317 314 306 297 298 287 299 45 254 261 290 294 248 278 237 225 213 238 237 210 184 283 348 329 317 318 347 330 273 150 272 278 230 169 193 188 185 188 194
327 329 331 326 325 320 317 310 301 298 257 147 100 160 268 300 283 264 180 252 279 228 214 208 150 196 247 251 346 341 249 240 302 213 244 186 267 277 274 192 206 197 192 194 189
326 325 324 323 323 321 319 305 299 326 112 146 179 326 274 270 319 300 256 256 312 330 341 112 108 159 68 133 235 207 230 244 244 305 13 305 267 277 287 204 212 204 200 192 191
301 317 320 324 320 321 337 345 360 8 240 214 182 260 284 283 297 280 357 341 330 151 211 254 159 208 229 203 232 244 243 253 269 283 304 281 283 278 276 238 206 218 206 200 203
285 300 311 318 319 322 358 43 56 274 294 248 259 249 259 272 289 273 130 204 236 224 12 324 242 231 230 196 223 239 260 268 273 268 266 275 275 256 262 254 195 201 206 208 150
271 287 305 322 322 360 327 348 324 348 268 250 224 236 220 203 236 257 221 191 195 238 225 227 226 21 230 242 244 239 236 255 262 283 284 282 282 272 256 241 241 209 212 206 184
269 284 306 329 66 340 339 324 321 249 294 276 238 258 187 190 292 222 236 198 207 234 185 246 209 230 257 247 236 260 220 246 257 265 266 181 280 266 230 251 245 240 207 205 194
250 265 289 17 285 357 311 310 307 54 325 244 243 181 167 166 263 164 189 136 226 201 141 220 138 229 235 248 232 266 223 247 246 247 249 240 252 360 194 250 264 264 255 205 189
244 260 271 101 129 258 315 305 58 45 253 303 270 36 106 230 288 303 110 111 182 208 245 255 260 231 255 254 234 294 301 309 252 167 234 249 192 271 244 230 233 249 267 214 188
249 255 199 305 265 333 330 28 57 171 315 283 18 14 325 302 322 229 243 171 191 189 324 337 277 246 217 253 262 259 70 302 268 198 251 183 205 238 239 246 238 266 300 326 187
247 255 262 224 22 1 347 87 187 209 241 308 341 335 251 10 47 345 352 268 200 105 122 229 307 4 359 206 200 240 194 223 246 235 257 244 233 245 95 70 45 51 44 54 92
228 46 251 239 211 81 30 239 217 206 226 348 325 270 223 37 19 8 17 295 287 193 204 187 247 263 290 196 154 282 204 232 240 258 253 256 300 303 37 32 32 44 53 68 96
123 212 228 203 153 109 190 231 257 260 335 36 263 295 261 46 26 28 312 86 321 349 98 318 305 263 289 325 233 343 359 312 360 219 242 224 250 345 359 359 22 23 49 59 81
121 246 265 157 111 186 232 220 248 260 282 271 252 251 296 351 297 169 250 319 3 340 8 133 194 286 360 275 211 1 24 9 302 160 241 248 192 78 40 29 25 38 46 43 110
162 226 281 143 195 233 241 230 271 270 287 253 240 256 256 276 274 239 235 234 221 195 300 306 161 271 238 272 81 87 108 110 198 336 327 355 136 78 28 14 5 19 37 31 22
203 276 8 257 220 212 246 260 251 266 260 229 224 215 211 213 235 240 231 246 275 236 148 267 20 332 319 33 45 70 91 108 141 81 326 298 208 263 351 308 256 214 171 180 121
116 243 292 259 216 236 252 256 267 313 295 259 278 309 284 253 217 254 257 279 258 215 287 255 197 188 223 229 152 212 187 182 153 219 218 225 270 218 214 245 235 226 203 189 183
166 217 184 257 227 245 258 251 259 276 223 244 255 242 242 248 244 236 255 258 227 211 232 199 207 233 248 265 227 264 268 238 210 216 213 261 268 282 227 216 238 223 200 204 192
154 176 247 251 277 271 248 219 276 282 274 251 238 260 289 257 242 270 274 202 218 128 186 196 239 194 250 257 233 246 242 232 241 258 253 257 265 299 286 230 234 237 198 205 209
206 82 117 234 236 111 216 255 277 317 276 252 304 301 260 255 246 262 287 265 225 183 193 197 165 207 248 32 80 306 251 235 207 225 223 236 262 351 307 305 294 299 302 248 210